RH
39 39 45 52 40 41 47 47 41 49 62 62 55 45 32 32 28 43 35 59 59 52 51 54 29 27 42 57 27 28 46 54 70 65 62 61 44 65 84 97 96 95 83
52 63 74 57 42 50 41 44 44 47 52 53 49 49 42 49 50 60 65 72 69 56 69 75 48 40 46 74 50 25 28 40 72 74 96 63 56 77 95 98 95 95 96
63 96 84 56 73 74 56 59 58 61 63 61 55 46 48 51 75 82 81 62 77 87 75 100 96 73 78 85 69 52 91 60 84 85 98 82 96 66 57 95 97 96 99
80 100 83 59 92 90 84 83 88 82 82 86 90 79 58 46 77 89 90 99 96 98 95 100 100 96 82 73 48 41 38 40 38 81 98 98 98 97 96 96 89 92 94
97 100 85 54 96 68 42 82 89 100 91 93 100 100 93 85 94 88 94 74 87 99 98 100 99 100 82 74 35 31 29 26 22 24 95 98 100 96 96 83 77 70 98
100 100 93 46 98 100 94 27 73 99 86 33 37 56 81 100 100 100 100 100 100 100 100 97 88 100 90 65 90 98 56 45 41 38 41 69 92 88 62 71 96 98 98
100 100 100 52 47 67 82 72 31 56 93 97 82 22 14 27 47 94 100 100 100 100 100 100 100 100 100 100 100 100 100 93 88 100 96 97 73 95 88 100 96 98 99
100 100 100 100 62 54 43 52 52 16 27 47 34 34 16 11 11 14 43 100 99 100 100 100 100 100 100 100 100 100 99 100 100 100 98 63 89 100 100 97 98 99 98
100 100 100 100 100 96 66 25 20 23 10 10 17 11 12 12 11 10 11 11 44 51 89 100 99 100 100 95 94 94 92 92 98 98 99 100 99 100 98 99 100 99 99
100 100 100 100 100 100 100 98 45 20 16 14 13 15 16 15 14 12 12 12 11 10 9 9 11 15 12 84 90 27 33 66 46 15 47 36 70 92 97 99 100 98 98
100 100 100 100 100 100 100 100 100 80 33 24 20 19 19 19 19 18 17 16 16 14 13 10 10 9 10 10 10 10 42 48 20 24 16 12 25 25 16 35 41 50 36
99 97 99 100 100 100 100 100 100 100 88 47 35 29 26 23 19 20 20 19 22 24 25 24 22 17 13 12 13 13 13 12 11 10 9 8 8 7 9 32 67 55 23
86 81 88 99 100 100 100 100 100 100 100 98 74 46 39 33 28 23 19 19 20 26 29 30 31 34 36 34 30 24 24 26 22 20 16 13 12 11 10 9 8 7 7
92 87 91 100 100 100 100 100 100 100 100 100 100 100 94 79 68 53 42 30 22 18 18 24 27 30 30 31 36 35 35 35 32 29 28 29 30 25 18 17 16 14 12
79 77 82 87 90 99 100 100 100 98 97 96 94 91 87 85 84 82 82 80 76 68 55 42 31 24 24 28 38 50 56 53 47 40 32 27 26 28 32 31 27 24 21
70 67 70 77 93 99 98 96 94 97 97 97 95 96 99 100 98 93 90 88 84 82 79 75 72 69 63 58 54 52 51 50 51 51 48 42 35 30 26 23 20 20 20
72 70 72 76 82 88 89 94 100 100 100 100 100 100 98 92 87 83 78 75 73 68 64 60 57 54 51 48 45 42 39 37 36 35 33 33 31 30 28 26 24 21 19
52 69 80 84 84 87 90 93 93 93 97 100 100 100 97 88 82 78 72 66 58 52 48 44 41 37 36 34 31 29 28 27 26 25 24 23 22 20 19 18 17 16 16
30 40 51 74 91 95 97 98 98 98 97 94 88 85 86 84 75 68 61 56 52 49 46 43 40 37 33 31 29 28 26 26 25 24 23 22 22 22 20 19 18 17 16
33 46 62 72 79 86 91 94 98 97 94 93 92 89 80 70 65 60 56 53 50 47 44 37 32 30 29 26 23 22 20 17 16 15 14 13 12 12 14 14 14 15 16
45 60 65 72 86 97 100 100 99 97 100 100 95 91 94 87 80 72 66 60 56 54 51 48 43 38 34 31 30 31 34 37 38 38 37 36 34 32 31 29 26 23 20
55 64 76 82 95 100 100 100 100 100 100 100 100 98 94 87 81 81 79 67 52 45 43 44 44 43 42 44 51 53 50 48 46 39 30 23 19 14 12 10 8 8 8
44 53 67 91 100 100 100 100 100 100 100 100 100 97 94 93 86 70 58 53 54 57 59 62 65 67 67 64 58 45 31 18 14 11 10 10 10 11 12 12 13 13 13
40 44 51 63 79 94 100 100 100 100 100 100 100 99 92 76 64 64 72 76 81 82 81 77 69 56 36 19 13 12 12 12 14 16 17 17 17 16 15 14 14 15 16
32 39 50 64 78 85 88 90 90 94 95 94 85 74 74 84 87 90 91 88 83 73 51 27 15 14 14 15 16 18 21 22 21 20 19 19 19 20 21 22 23 24 24
37 39 41 45 55 69 80 86 87 86 87 89 95 97 96 96 94 89 76 51 26 17 16 16 17 18 21 24 26 25 24 23 23 24 24 26 27 28 27 26 24 23 22
Wind_Speed
28 29 30 31 29 30 29 31 36 35 34 35 36 35 33 36 37 35 29 33 36 43 52 55 57 62 56 54 53 52 47 44 52 61 64 61 62 59 51 65 65 63 62
27 27 28 29 27 28 24 26 30 30 33 34 33 28 26 21 23 25 30 29 35 35 36 36 40 48 51 50 50 51 53 53 48 56 41 63 64 59 55 58 70 64 67
25 25 27 26 25 28 28 27 28 28 28 28 28 26 26 28 28 29 29 23 21 21 18 18 29 34 40 41 42 46 42 40 43 45 48 57 57 55 60 59 49 61 61
26 26 26 24 22 23 26 27 27 28 28 27 24 24 26 29 25 17 17 13 13 11 13 20 17 28 29 37 41 42 40 42 41 53 59 60 53 53 60 60 53 65 67
27 26 26 24 23 20 21 24 24 21 18 17 15 13 18 24 25 23 19 18 20 15 11 12 25 28 28 31 35 40 43 46 49 44 52 65 65 51 61 48 54 60 62
27 28 27 26 25 25 26 24 24 20 17 16 15 16 15 13 13 12 14 16 14 7 17 22 28 25 29 32 32 35 43 41 46 45 47 51 58 53 56 54 54 60 69
30 32 30 28 28 26 27 26 25 25 21 19 17 17 16 17 17 16 6 4 3 7 15 20 30 34 34 40 40 34 37 38 44 44 57 49 48 55 57 58 63 63 60
32 34 36 33 28 27 27 28 25 24 24 21 21 18 16 15 15 16 16 15 15 12 9 9 8 6 7 8 14 18 12 20 35 50 57 53 54 51 51 48 55 61 58
32 28 31 34 32 29 26 26 25 24 23 22 22 19 17 17 15 16 16 14 13 13 10 7 8 7 5 6 7 8 9 11 12 11 10 11 27 35 39 43 47 47 49
29 24 27 30 32 32 31 27 23 23 22 22 22 21 21 20 19 19 18 18 18 16 15 12 10 11 9 10 9 11 10 11 12 12 15 17 19 21 24 28 33 34 39
26 23 24 27 29 30 29 29 27 23 23 23 24 24 24 25 24 24 23 23 23 21 20 20 20 20 20 20 20 19 21 22 23 24 26 25 25 26 28 30 33 35 36
23 24 21 25 27 29 30 28 28 26 23 23 24 25 27 28 28 29 29 28 27 26 25 26 26 25 26 26 27 28 29 30 32 34 34 35 35 35 37 41 45 48 45
23 25 20 21 25 27 30 28 28 29 27 27 26 26 27 28 30 32 33 34 34 34 33 31 32 33 33 33 36 38 39 38 41 42 41 42 43 45 46 48 49 49 50
21 20 18 20 23 26 29 29 28 28 28 29 30 32 34 34 34 34 34 36 38 40 41 42 41 41 42 44 44 45 47 48 48 48 51 54 55 55 55 55 56 57 59
22 19 18 18 19 22 25 27 29 30 31 31 33 34 35 36 37 39 41 42 44 45 47 48 49 51 52 51 51 52 53 54 56 57 56 57 58 60 63 65 66 67 68
23 23 22 22 23 25 28 30 31 33 34 36 38 39 40 42 42 43 44 45 46 47 47 48 49 51 53 56 58 59 60 61 62 63 65 66 68 69 69 69 71 73 75
26 27 27 27 29 30 31 31 32 35 37 38 40 41 42 43 44 44 45 44 44 46 48 49 50 51 52 54 55 57 59 61 63 65 67 69 71 73 76 77 79 80 81
26 26 26 28 29 31 32 33 34 36 37 37 39 40 41 43 43 43 45 47 49 51 52 54 55 56 57 59 60 61 63 65 67 69 71 73 75 77 78 79 80 81 82
27 28 29 30 32 34 35 37 37 38 39 40 41 41 42 44 46 48 49 51 52 54 55 57 58 59 60 61 62 63 64 66 68 70 71 73 75 77 79 80 81 83 84
29 30 31 32 34 35 36 38 38 40 41 42 43 45 48 51 53 54 55 55 56 57 58 58 59 59 60 61 63 65 67 69 71 73 75 77 78 80 80 81 82 83 83
33 34 36 37 38 39 40 41 43 44 45 47 50 52 54 54 54 54 55 55 56 57 58 59 61 62 63 64 66 68 70 70 71 72 72 74 75 76 78 80 81 83 84
36 37 39 40 41 41 42 44 45 47 51 53 54 53 52 54 55 56 60 63 63 63 63 63 63 65 66 67 68 69 71 73 74 75 76 77 78 79 80 80 80 80 80
38 39 41 42 43 44 47 49 50 50 51 51 53 54 54 57 61 63 63 62 62 62 63 64 64 66 68 70 72 73 73 73 74 74 75 74 74 73 73 72 71 71 70
41 43 44 44 45 45 46 48 51 51 52 53 55 58 61 64 62 60 61 62 62 63 65 67 68 70 70 70 70 70 70 70 69 68 68 68 68 67 66 66 66 66 65
45 46 46 47 47 48 49 50 51 53 55 57 59 58 57 60 61 62 62 64 65 67 67 67 67 67 67 67 66 65 64 64 64 64 64 64 64 64 64 64 64 63 63
44 43 44 46 47 47 48 49 50 51 54 56 58 59 59 60 62 63 65 65 65 65 65 64 63 63 62 62 62 61 61 61 61 62 62 62 62 62 61 60 60 60 59
Wind_Direction
290 290 292 295 295 302 294 295 292 291 288 289 294 294 294 294 296 280 278 293 285 274 267 258 243 238 236 236 237 241 243 246 240 238 235 239 245 247 251 246 243 240 242
287 289 294 296 308 316 309 301 300 300 291 288 289 278 302 320 311 294 289 290 292 264 270 251 239 226 227 228 232 238 240 250 245 239 243 240 247 246 253 251 245 247 247
286 291 293 300 315 318 323 326 322 321 317 304 300 289 298 313 306 279 295 294 302 284 261 249 213 208 218 220 228 235 234 237 244 237 236 240 233 245 247 244 251 252 256
289 285 288 295 302 313 320 325 322 320 322 322 319 312 319 320 333 334 302 300 296 240 216 230 199 216 200 211 223 230 236 238 240 235 227 234 231 231 239 238 254 247 252
280 282 281 284 287 298 312 313 324 315 316 317 323 311 324 326 332 337 314 289 315 285 239 224 200 222 211 221 222 231 239 240 242 239 242 230 237 240 239 253 254 258 239
277 278 277 273 275 281 290 299 307 316 314 328 334 350 354 355 353 308 297 295 298 289 242 219 218 231 224 223 229 231 236 240 242 241 242 240 250 240 235 249 252 245 248
280 278 276 271 271 277 282 290 298 299 313 317 324 338 346 351 355 8 11 57 243 202 196 197 203 218 221 224 241 237 238 231 237 219 234 228 233 238 245 248 257 245 241
286 288 283 269 267 274 279 282 286 289 291 300 305 310 324 329 334 344 351 357 5 23 50 64 76 116 112 174 190 193 183 196 212 223 222 229 231 233 233 241 244 241 244
286 289 292 285 270 267 275 279 279 281 285 285 286 291 301 310 315 321 327 335 335 342 346 353 349 347 349 351 343 339 339 334 335 322 300 249 224 225 231 234 237 239 238
286 285 295 292 288 280 272 269 277 281 280 281 282 287 291 294 300 302 305 310 314 315 315 299 285 290 284 266 261 265 255 263 273 269 267 270 279 282 278 267 267 268 257
286 281 290 290 291 289 285 281 269 273 281 282 281 282 285 289 293 296 296 296 297 301 304 303 304 298 291 288 286 277 264 260 256 253 254 250 253 259 262 265 267 268 268
289 285 295 297 295 291 288 284 280 268 270 280 282 282 283 283 282 284 286 288 289 290 291 295 294 289 286 286 285 284 281 276 271 267 266 264 262 258 256 258 263 267 269
290 293 290 300 301 299 299 285 284 281 276 273 277 282 280 281 283 284 284 284 285 286 286 283 283 288 290 287 285 283 284 285 281 279 275 271 270 268 265 264 263 262 261
294 286 292 300 304 308 306 300 294 284 282 282 281 280 282 286 288 288 287 285 283 280 277 276 277 276 275 278 280 281 281 283 285 285 283 282 279 277 276 274 272 272 272
285 281 283 290 299 302 302 300 297 295 290 288 286 286 285 286 288 290 290 290 289 287 284 283 281 279 278 278 276 277 278 279 280 281 280 280 280 279 278 277 276 276 275
282 278 277 281 288 292 292 292 292 292 292 291 291 291 291 292 291 290 290 290 290 290 290 289 287 286 286 286 285 284 283 281 280 279 279 279 279 279 278 278 278 277 277
283 283 284 286 288 287 287 288 290 292 291 291 291 292 292 292 292 292 292 292 290 291 290 290 289 289 288 287 285 284 284 283 283 282 282 281 281 281 281 280 280 280 279
286 286 285 286 287 288 288 289 289 289 289 288 290 291 291 290 292 294 295 295 295 295 295 294 294 292 291 289 288 287 287 286 284 282 281 280 281 281 280 280 279 279 278
287 289 290 292 292 292 293 293 292 291 291 291 292 292 292 293 294 295 295 296 295 295 295 295 294 293 292 291 290 289 288 287 285 284 283 283 282 281 281 280 280 280 279
293 293 293 293 295 296 296 296 296 295 295 295 294 295 295 296 297 297 297 297 296 295 295 294 293 293 293 292 291 290 290 289 288 287 286 285 284 283 283 283 282 282 281
294 293 294 295 296 296 296 296 296 295 293 291 292 295 295 295 296 297 297 297 297 298 297 295 294 294 293 293 292 292 291 290 289 288 288 287 286 285 284 283 283 282 281
298 297 296 297 296 296 295 294 292 291 292 294 295 295 295 296 297 299 300 300 298 297 296 294 294 293 293 293 292 291 291 291 291 291 290 290 289 288 287 286 286 285 284
302 301 300 299 297 294 293 292 293 294 294 294 296 296 297 298 299 299 298 298 297 296 296 296 296 295 294 294 294 294 294 294 294 294 293 292 291 290 289 289 288 287 286
302 302 300 298 297 297 295 294 295 296 298 298 298 298 297 298 299 299 299 299 298 298 298 298 298 297 298 297 297 297 297 296 295 295 294 293 292 292 291 291 289 288 288
303 302 301 301 300 299 298 297 297 297 297 297 298 299 300 300 300 301 301 301 301 301 300 301 300 300 300 300 299 299 298 298 297 296 296 295 294 293 292 292 291 290 289
302 302 303 302 301 301 301 302 302 301 301 300 301 301 301 302 302 302 302 302 302 302 302 302 302 302 301 301 301 300 300 300 299 298 297 296 295 294 293 292 291 289 289